Weather Roundup
Issued by NWS Chicago, IL

Home | Current Version | Previous Version | Graphics & Text | Print | Product List | Glossary On
Versions: 1 2 3 4 5 6 7 8 9 10 11 12 13 14 15 16 17 18 19 20 21 22 23 24 25 26 27 28 29 30 31 32 33 34 35 36 37 38 39 40 41 42 43 44 45 46 47 48 49 50
000
NZUS59 KLOT 241907
HRRLOT

CHICAGO AREA WEATHER ROUNDUP
NATIONAL WEATHER SERVICE CHICAGO/ROMEOVILLE IL
200 PM CDT FRI MAR 24 2017

NOTE: "FAIR" INDICATES FEW OR NO CLOUDS BELOW 12,000 FEET WITH NO
SIGNIFICANT WEATHER AND/OR OBSTRUCTIONS TO VISIBILITY.

* THESE STATIONS ARE NOT UNDER NWS QUALITY CONTROL. THEY ALSO MAY NOT
  REPORT WEATHER SUCH AS PRECIPITATION OR FOG.

ILZ005-006-012>014-019>023-242000-
NORTHEAST ILLINOIS

CITY           SKY/WX    TMP DP  RH WIND       PRES   REMARKS
OHARE          MOSUNNY   81  42  25 W23G32    29.88F
MIDWAY         MOSUNNY   80  45  28 SW25G39   29.90F
AURORA         SUNNY     78  44  29 SW18G28   29.90F
LANSING*       SUNNY     79  53  41 W24G32    29.92F
JOLIET*        SUNNY     80  48  32 SW17G30   29.91F
WAUKEGAN       SUNNY     79  45  29 SW16G30   29.86F
DUPAGE AIRPORT SUNNY     80  45  28 SW22G36   29.89F
WHEELING       SUNNY     79  44  28 SW16G25   29.89F
KANKAKEE*      SUNNY     80  51  36 SW28G38   29.94F HX  80
MORRIS*        SUNNY     80  47  30 SW22G32   29.90F
LEWIS AIRPORT* SUNNY     80  52  38 SW17G31   29.90F HX  80
NORTHERLY ISL    N/A     77  39  25 SW10        N/A
$$

WIZ051-052-058>065-066-070>072-242000-
SOUTHEAST WISCONSIN

CITY           SKY/WX    TMP DP  RH WIND       PRES   REMARKS
MILWAUKEE      PTSUNNY   54  42  64 NE10      29.92R
KENOSHA*       PTSUNNY   76  49  38 SW22G29   29.87S
RACINE*        PTSUNNY   51  40  65 NE13      29.91R
WAUKESHA       SUNNY     63  48  59 NW8       29.91R
WEST BEND      CLOUDY    57  46  67 NE8       29.93R
$$

INZ001>003-010>013-019-020-242000-
NORTHWEST INDIANA

CITY           SKY/WX    TMP DP  RH WIND       PRES   REMARKS
GARY*          MOSUNNY   81  41  24 SW20G39   29.92F
MICHIGAN CITY* NOT AVBL
RENSSELAER*    NOT AVBL
VALPARAISO     SUNNY     79  52  38 SW28G40   29.95F
$$

LMZ740>746-242000-
SOUTHERN LAKE MICHIGAN

STATION/POSITION TIME  SKY/WX   TEMP WIND        PRES    VSBY
                                AIR  DIR/SP/G
                 (UTC)          (F)  (DEG/KT/KT) (MB)    (MI)
HARRISON CRIB    1840            74  220/ 18/ 24   N/A
BURNHAM HARBOR   1900            77  230/ 14/ 23   N/A
CALUMET HARBOR   1842            78  210/ 18/ 28 1012.1F
BURNS HARBOR     1840            73  220/ 18/ 30 1013.9S
MICHIGAN CITY    1840            72  210/ 26/ 30   N/A
$$

ABBREVIATIONS USED IN REMARKS
   TC - TEMPERATURE IN CELSIUS
  WCI - WIND CHILL INDEX
   HX - HEAT INDEX
  VSB - VISIBILITY
$$




USA.gov is the U.S. government's official web portal to all federal, state and local government web resources and services.